GPS BIII-2 (PRN 18)

Last updated on Thu Sep 11 2025 00:03:17 GMT+0000 (Coordinated Universal Time)

1 44506U 19056A 25252.50597588 -.00000076 00000+0 00000+0 0 9995 2 44506 55.7550 342.2954 0056504 195.5871 203.1478 2.00563354 44442
UTC large
Height (km)
Speed (km/s)
/
Latitude / Longitude
Inclination (degrees)
Orbital Period (minutes)
Azimuth
Elevation
Range (km)
Doppler Factor

Next 0 passes for location: London (51.5072 / 0.1276)

Sorry there are no passes over London.